Location: Northcutt
(34.7304°N, 84.4305°W)
Time: 14:35:20
(UTC+00:00)

Hubble Space Telescope - Pass Details

Date: 08 August 2022
Orbit: 531 x 535 km, 28.5° (Epoch: 27 September)

Event Time Altitude Azimuth Distance (km) Brightness Sun altitude
Rises 02:02:26 0° 247° (WSW) 2,666 4.8 -16.9°
Reaches altitude 10° 02:04:51 10° 237° (WSW) 1,777 3.7 -17.3°
Maximum altitude 02:08:32 32° 174° (S) 935 1.6 -18.0°
Enters shadow 02:08:36 32° 171° (S) 936 1.6 -18.0°
